User: anonymous   Login
Location: Unspecified
(0.0000°N, 0.0000°E)
Time: 23:04:33
(UTC+00:00)
Language:

STARLINK-34292 - Orbit

View from above orbital plane
View from above orbital plane
View from above satellite
View from above satellite

Ground track
Ground track

The orbit is defined by the following mean orbital elements,

1 64390U          26145.37908841 +.00000000 +00000-0 +78333-3 0 00000
2 64390  42.9999 106.8552 0001108 277.0617  83.0108 15.27602305    04
Epoch (UTC): 25 May 2026 09:05:53
Eccentricity: 0.0001108
inclination: 42.9999°
perigee height: 482 km
apogee height: 484 km
right ascension of ascending node: 106.8552°
argument of perigee: 277.0617°
revolutions per day: 15.27602305
mean anomaly at epoch: 83.0108°

The dashed part of the orbit path shows where the satellite is in the earth's shadow,  

DLR